Content
SEND FEEDBACK

Daily
Averages
Monthly
Summary
United States of America

SOUTH LAKE TAHOE, CALIFORNIA


Home > North America > United States > California
Elevation: 6263 feet     Latitude: 38 53N     Longitude: 119 59W

WEATHER
 
SELECT A DAY
Number of Records: 174,537;   Date Range: 1/1/95 - 8/30/14
 
SHARE

PRINT THIS DATA

[ ← Previous Day ]
WEATHER ALMANAC - MARCH 8, 2013
[ Next Day → ]
[ °C ]   °F
Weather ElementAverageHighLow
Temperature25.7 °F37 °F (12:53 pm)17.1 °F (1:53 am)
Dewpoint19.9 °F27 °F (6:53 pm)14 °F (1:53 am)
Humidity79.7 %93 % (12:09 am)54 % (12:53 pm)
Barometer29.84 in29.95 in (11:53 pm)29.78 in (3:14 am)
Wind Speed1 mph6.9 mph (6:39 pm)
Weather ElementAverage
Visibility6.6 mi
Wind DirectionNNE (32.9 °)

Weather ElementTotal
Precipitation---
Heating Degree Days38 (Base 65)
Averaged from 52 records on March 8, 2013
WEATHER CONDITIONS BREAKOUT
WIND DIRECTION BREAKOUT
WEATHER BY HOUR - MARCH 8, 2013
[ °C ]   °F
Local TimeTemperatureDewpointHumidityBarometerVisibilityWind DirectionWind SpeedGust SpeedPrecipitationEventsConditions
12:09 AM19.4 °F17.6 °F93 %29.81 in0.8 miCalmMist
12:11 AM19.4 °F17.6 °F93 %29.81 in1.2 miCalmPartly Cloudy
12:14 AM19.4 °F15.8 °F86 %29.81 in0.8 miCalmMist
12:18 AM21.2 °F17.6 °F86 %29.81 in1.2 miCalmScattered Clouds
12:23 AM19.4 °F15.8 °F86 %29.81 in2.0 miCalmMostly Cloudy
12:26 AM19.4 °F15.8 °F86 %29.81 in5.0 miCalmMostly Cloudy
12:33 AM21.2 °F17.6 °F86 %29.81 in4.0 miCalmMostly Cloudy
12:39 AM21.2 °F17.6 °F86 %29.81 in8.0 miCalmOvercast
12:50 AM21.2 °F17.6 °F86 %29.81 in1.5 miCalmOvercast
12:53 AM21.0 °F18.0 °F88 %29.84 in0.5 miCalmFogLight Freezing Fog
1:19 AM21.2 °F17.6 °F86 %29.81 in2.0 miCalmMostly Cloudy
1:21 AM21.2 °F17.6 °F86 %29.81 in6.0 miCalmMostly Cloudy
1:29 AM19.4 °F15.8 °F86 %29.81 in6.0 miCalmScattered Clouds
1:53 AM17.1 °F14.0 °F88 %29.85 in9.0 miCalmClear
2:26 AM17.6 °F14.0 °F86 %29.80 in3.0 miCalmScattered Clouds
2:28 AM17.6 °F14.0 °F86 %29.80 in1.2 miCalmScattered Clouds
2:30 AM19.4 °F14.0 °F80 %29.79 in0.8 miCalmHaze
2:53 AM19.0 °F14.0 °F81 %29.83 in0.2 miSouth (180°)3.5 mphHaze
3:14 AM19.4 °F14.0 °F80 %29.78 in2.5 miSouth (170°)5.8 mphHaze
3:16 AM19.4 °F15.8 °F86 %29.78 in6.0 miSSW (200°)3.5 mphHaze
3:23 AM21.2 °F15.8 °F80 %29.78 in10.0 miCalmMostly Cloudy
3:31 AM19.4 °F15.8 °F86 %29.78 in10.0 miCalmScattered Clouds
3:53 AM19.9 °F15.1 °F81 %29.81 in10.0 miSSW (200°)3.5 mphScattered Clouds
4:53 AM19.0 °F14.0 °F81 %29.82 in10.0 miCalmOvercast
5:53 AM21.0 °F16.0 °F81 %29.82 in10.0 miSouth (190°)5.8 mphOvercast
6:01 AM21.2 °F15.8 °F80 %29.78 in10.0 miCalmOvercast
6:53 AM21.9 °F17.1 °F82 %29.83 in10.0 miCalmOvercast
7:09 AM21.2 °F17.6 °F86 %29.79 in10.0 miCalmOvercast
7:53 AM23.0 °F19.9 °F88 %29.83 in10.0 miCalmOvercast
8:53 AM27.0 °F21.9 °F81 %29.81 in10.0 miCalmOvercast
9:53 AM33.1 °F23.0 °F66 %29.80 in10.0 miNNE (20°)4.6 mphOvercast
10:53 AM36.0 °F21.9 °F57 %29.80 in10.0 miCalmOvercast
11:53 AM35.1 °F21.0 °F57 %29.83 in10.0 miCalmOvercast
12:53 PM37.0 °F21.9 °F54 %29.81 in10.0 miCalmOvercast
1:53 PM37.0 °F23.0 °F57 %29.81 in10.0 miCalmOvercast
2:53 PM36.0 °F21.9 °F57 %29.81 in10.0 miCalmOvercast
3:53 PM36.0 °F21.0 °F55 %29.82 in10.0 miCalmOvercast
4:53 PM34.0 °F26.1 °F73 %29.84 in10.0 miCalmOvercast
5:53 PM34.0 °F25.0 °F70 %29.86 in10.0 miSSW (200°)5.8 mphOvercast
6:19 PM33.8 °F26.6 °F75 %29.85 in3.0 miSouth (190°)4.6 mph0.00 inSnowLight Snow
6:39 PM32.0 °F26.6 °F80 %29.85 in6.0 miSouth (180°)6.9 mph0.00 inSnowLight Snow
6:53 PM32.0 °F27.0 °F82 %29.90 in10.0 miSouth (180°)6.9 mph0.00 inOvercast
7:53 PM32.0 °F26.1 °F79 %29.91 in10.0 miCalmOvercast
8:44 PM32.0 °F26.6 °F80 %29.90 in7.0 miCalm0.00 inSnowLight Snow
8:53 PM32.0 °F26.1 °F79 %29.92 in4.0 miCalm0.00 inSnowLight Snow
9:00 PM32.0 °F26.6 °F80 %29.91 in6.0 miCalm0.00 inHaze
9:12 PM32.0 °F26.6 °F80 %29.92 in2.5 miCalm0.00 inSnowLight Snow
9:31 PM32.0 °F26.6 °F80 %29.92 in4.0 miCalm0.00 inSnowLight Snow
9:53 PM30.9 °F26.1 °F82 %29.93 in10.0 miCalm0.00 inOvercast
10:39 PM28.4 °F24.8 °F86 %29.94 in10.0 miCalmMostly Cloudy
10:53 PM28.9 °F24.1 °F82 %29.93 in10.0 miCalmMostly Cloudy
11:53 PM28.9 °F25.0 °F85 %29.95 in9.0 miCalm0.00 inSnowLight Snow
Hourly data recorded from KTVL, located miles away from South Lake Tahoe, California







STORIES FROM OUR PARTNERS